When you browse on this site, cookies collect data to enhance your experience and personalize the content and advertising you see.
Visit our Privacy Policy to learn more. By continuing to use the site, you agree to this use of cookies and data.

Stündliche Wetter Flerovo

Heute, 16 Juli, Donnerstag

Zeit Temperatur Niederschläge Wind Luftdruck Luftfeuchtigkeit
00:00 +13°C° 0 mm 1 m/S 748 mmHg 84%
01:00 +13°C° 0 mm 1 m/S 748 mmHg 84%
02:00 +13°C° 0 mm 1 m/S 748 mmHg 84%
03:00 +13°C° 0 mm 1 m/S 748 mmHg 85%
04:00 +12°C° 0 mm 0 m/S 747 mmHg 86%
05:00 +12°C° 0 mm 0 m/S 747 mmHg 87%
06:00 +15°C° 0 mm 1 m/S 747 mmHg 84%
07:00 +18°C° 0 mm 1 m/S 747 mmHg 80%
08:00 +20°C° 0 mm 1 m/S 748 mmHg 76%
09:00 +21°C° 0.2 mm 1 m/S 747 mmHg 72%
10:00 +23°C° 0.2 mm 1 m/S 747 mmHg 68%
11:00 +24°C° 0.2 mm 1 m/S 747 mmHg 65%
12:00 +24°C° 0.3 mm 1 m/S 747 mmHg 63%
13:00 +25°C° 0.3 mm 1 m/S 747 mmHg 61%
14:00 +25°C° 0.3 mm 1 m/S 747 mmHg 60%
15:00 +25°C° 0.3 mm 1 m/S 746 mmHg 61%
16:00 +25°C° 0.3 mm 1 m/S 746 mmHg 62%
17:00 +25°C° 0.3 mm 1 m/S 746 mmHg 63%
18:00 +23°C° 0.1 mm 1 m/S 746 mmHg 70%
19:00 +21°C° 0.1 mm 1 m/S 746 mmHg 77%
20:00 +19°C° 0.1 mm 2 m/S 746 mmHg 84%
21:00 +18°C° 0 mm 2 m/S 746 mmHg 86%
22:00 +17°C° 0 mm 2 m/S 746 mmHg 89%
23:00 +16°C° 0 mm 2 m/S 746 mmHg 91%

Morgen, 17 Juli, Freitag

Zeit Temperatur Niederschläge Wind Luftdruck Luftfeuchtigkeit
00:00 +16°C° 0 mm 1 m/S 747 mmHg 91%
01:00 +15°C° 0 mm 1 m/S 747 mmHg 92%
02:00 +15°C° 0 mm 1 m/S 747 mmHg 93%
03:00 +15°C° 0 mm 1 m/S 747 mmHg 94%
04:00 +15°C° 0 mm 1 m/S 747 mmHg 94%
05:00 +15°C° 0 mm 1 m/S 747 mmHg 94%
06:00 +16°C° 0 mm 1 m/S 747 mmHg 89%
07:00 +19°C° 0 mm 1 m/S 747 mmHg 84%
08:00 +20°C° 0 mm 2 m/S 748 mmHg 79%
09:00 +21°C° 0.1 mm 2 m/S 748 mmHg 74%
10:00 +24°C° 0.1 mm 2 m/S 748 mmHg 68%
11:00 +25°C° 0.1 mm 2 m/S 747 mmHg 63%
12:00 +25°C° 0.9 mm 2 m/S 747 mmHg 64%
13:00 +26°C° 0.9 mm 2 m/S 747 mmHg 64%
14:00 +26°C° 0.9 mm 2 m/S 747 mmHg 65%
15:00 +26°C° 1 mm 2 m/S 748 mmHg 68%
16:00 +25°C° 1 mm 2 m/S 748 mmHg 72%
17:00 +25°C° 1 mm 2 m/S 748 mmHg 75%
18:00 +24°C° 0.2 mm 2 m/S 748 mmHg 78%
19:00 +21°C° 0.2 mm 2 m/S 748 mmHg 82%
20:00 +20°C° 0.2 mm 2 m/S 748 mmHg 85%
21:00 +19°C° 0.2 mm 2 m/S 748 mmHg 87%
22:00 +18°C° 0.2 mm 2 m/S 748 mmHg 90%
23:00 +17°C° 0.2 mm 2 m/S 749 mmHg 92%

übermorgen, 18 Juli, Samstag

Zeit Temperatur Niederschläge Wind Luftdruck Luftfeuchtigkeit
00:00 +17°C° 0.2 mm 2 m/S 749 mmHg 93%
01:00 +17°C° 0.2 mm 2 m/S 749 mmHg 93%
02:00 +16°C° 0.2 mm 2 m/S 749 mmHg 94%
03:00 +16°C° 0.1 mm 2 m/S 749 mmHg 94%
04:00 +16°C° 0.1 mm 2 m/S 749 mmHg 95%
05:00 +16°C° 0.1 mm 2 m/S 749 mmHg 96%
06:00 +17°C° 0 mm 2 m/S 750 mmHg 93%
07:00 +19°C° 0 mm 2 m/S 750 mmHg 90%
08:00 +20°C° 0 mm 2 m/S 750 mmHg 87%
09:00 +23°C° 0.4 mm 2 m/S 750 mmHg 80%
10:00 +24°C° 0.4 mm 2 m/S 750 mmHg 74%
11:00 +26°C° 0.4 mm 2 m/S 750 mmHg 68%
12:00 +27°C° 0.4 mm 2 m/S 750 mmHg 64%
13:00 +27°C° 0.4 mm 2 m/S 750 mmHg 61%
14:00 +28°C° 0.4 mm 2 m/S 750 mmHg 57%
15:00 +27°C° 0.7 mm 2 m/S 750 mmHg 64%
16:00 +26°C° 0.7 mm 3 m/S 750 mmHg 71%
17:00 +25°C° 0.7 mm 3 m/S 749 mmHg 77%
18:00 +24°C° 0.4 mm 3 m/S 750 mmHg 81%
19:00 +22°C° 0.4 mm 3 m/S 750 mmHg 85%
20:00 +20°C° 0.4 mm 3 m/S 750 mmHg 88%
21:00 +20°C° 0.3 mm 2 m/S 750 mmHg 90%
22:00 +19°C° 0.3 mm 2 m/S 750 mmHg 92%
23:00 +18°C° 0.3 mm 2 m/S 750 mmHg 93%

19 Juli, Sonntag

Zeit Temperatur Niederschläge Wind Luftdruck Luftfeuchtigkeit
00:00 +18°C° 0.4 mm 2 m/S 750 mmHg 94%
01:00 +17°C° 0.4 mm 2 m/S 750 mmHg 95%
02:00 +17°C° 0.4 mm 2 m/S 750 mmHg 96%
03:00 +17°C° 0.3 mm 2 m/S 750 mmHg 96%
04:00 +17°C° 0.3 mm 2 m/S 750 mmHg 97%
05:00 +17°C° 0.3 mm 2 m/S 750 mmHg 97%
06:00 +18°C° 0.2 mm 2 m/S 750 mmHg 95%
07:00 +19°C° 0.2 mm 2 m/S 750 mmHg 92%
08:00 +21°C° 0.2 mm 2 m/S 750 mmHg 89%
09:00 +22°C° 0.8 mm 3 m/S 750 mmHg 86%
10:00 +24°C° 0.8 mm 3 m/S 750 mmHg 82%
11:00 +25°C° 0.8 mm 4 m/S 750 mmHg 78%
12:00 +25°C° 2.1 mm 4 m/S 750 mmHg 77%
13:00 +25°C° 2.1 mm 3 m/S 749 mmHg 77%
14:00 +25°C° 2.1 mm 3 m/S 749 mmHg 76%
15:00 +25°C° 1.3 mm 3 m/S 749 mmHg 77%
16:00 +25°C° 1.3 mm 3 m/S 749 mmHg 78%
17:00 +25°C° 1.3 mm 2 m/S 748 mmHg 79%
18:00 +24°C° 0.2 mm 2 m/S 748 mmHg 83%
19:00 +21°C° 0.2 mm 2 m/S 748 mmHg 86%
20:00 +20°C° 0.2 mm 2 m/S 748 mmHg 89%
21:00 +19°C° 0.1 mm 2 m/S 748 mmHg 90%
22:00 +18°C° 0.1 mm 2 m/S 748 mmHg 91%
23:00 +18°C° 0.1 mm 2 m/S 748 mmHg 93%

20 Juli, Montag

Zeit Temperatur Niederschläge Wind Luftdruck Luftfeuchtigkeit
00:00 +17°C° 0.1 mm 2 m/S 748 mmHg 93%
01:00 +17°C° 0.1 mm 2 m/S 748 mmHg 93%
02:00 +16°C° 0.1 mm 2 m/S 748 mmHg 93%
03:00 +16°C° 0 mm 2 m/S 748 mmHg 93%
04:00 +16°C° 0 mm 2 m/S 747 mmHg 93%
05:00 +16°C° 0 mm 2 m/S 747 mmHg 93%
06:00 +17°C° 0 mm 2 m/S 747 mmHg 90%
07:00 +18°C° 0 mm 2 m/S 747 mmHg 88%
08:00 +20°C° 0 mm 2 m/S 747 mmHg 86%
09:00 +21°C° 0.4 mm 3 m/S 747 mmHg 81%
10:00 +22°C° 0.4 mm 3 m/S 747 mmHg 76%
11:00 +25°C° 0.4 mm 3 m/S 747 mmHg 72%
12:00 +25°C° 0.2 mm 3 m/S 746 mmHg 68%
13:00 +26°C° 0.2 mm 3 m/S 746 mmHg 65%
14:00 +27°C° 0.2 mm 3 m/S 746 mmHg 61%
15:00 +26°C° 0.4 mm 3 m/S 746 mmHg 64%
16:00 +26°C° 0.4 mm 2 m/S 745 mmHg 66%
17:00 +26°C° 0.4 mm 2 m/S 745 mmHg 69%
18:00 +24°C° 0 mm 2 m/S 745 mmHg 74%
19:00 +22°C° 0 mm 1 m/S 745 mmHg 79%
20:00 +21°C° 0 mm 1 m/S 745 mmHg 85%
21:00 +20°C° 0 mm 1 m/S 745 mmHg 86%
22:00 +19°C° 0 mm 1 m/S 745 mmHg 87%
23:00 +16°C° 0 mm 0 m/S 745 mmHg 89%

21 Juli, Dienstag

Zeit Temperatur Niederschläge Wind Luftdruck Luftfeuchtigkeit
00:00 +16°C° 0 mm 0 m/S 745 mmHg 89%
01:00 +15°C° 0 mm 0 m/S 745 mmHg 90%
02:00 +15°C° 0 mm 0 m/S 744 mmHg 90%
03:00 +15°C° 0 mm 0 m/S 744 mmHg 90%
04:00 +15°C° 0 mm 0 m/S 744 mmHg 90%
05:00 +15°C° 0 mm 0 m/S 744 mmHg 90%
06:00 +17°C° 0 mm 0 m/S 744 mmHg 85%
07:00 +19°C° 0 mm 0 m/S 744 mmHg 80%
08:00 +20°C° 0 mm 0 m/S 744 mmHg 76%
09:00 +24°C° 0.1 mm 1 m/S 744 mmHg 70%
10:00 +25°C° 0.1 mm 1 m/S 744 mmHg 65%
11:00 +26°C° 0.1 mm 1 m/S 744 mmHg 60%
12:00 +26°C° 0 mm 2 m/S 744 mmHg 60%
13:00 +26°C° 0 mm 3 m/S 743 mmHg 60%
14:00 +26°C° 0 mm 3 m/S 743 mmHg 60%
15:00 +26°C° 0.5 mm 4 m/S 743 mmHg 67%
16:00 +25°C° 0.5 mm 4 m/S 743 mmHg 74%
17:00 +23°C° 0.5 mm 4 m/S 743 mmHg 81%
18:00 +21°C° 0.3 mm 4 m/S 744 mmHg 85%
19:00 +20°C° 0.3 mm 4 m/S 744 mmHg 89%
20:00 +19°C° 0.3 mm 5 m/S 744 mmHg 93%
21:00 +18°C° 0 mm 4 m/S 745 mmHg 93%
22:00 +17°C° 0 mm 4 m/S 745 mmHg 93%
23:00 +15°C° 0 mm 4 m/S 746 mmHg 94%
Mehr zeigen